Location: Barcelona
(41.3830°N, 2.1830°E)
Time: 13:19:25
(UTC+02:00)

ISS - Pass Details

Date: 28 May 2020
Orbit: 417 x 419 km, 51.6° (Epoch: 31 May)

Event Time Altitude Azimuth Distance (km) Brightness Sun altitude
Rises 23:56:46 0° 307° (NW) 2,367 1.2 -22.0°
Reaches altitude 10° 23:58:54 10° 312° (NW) 1,501 0.0 -22.2°
Enters shadow 00:01:51 51° 3° (N) 537 -3.0 -22.4°
